Tracking 18823 objects as of 20-October-2017
HD Live streaming from Space Station
objects crossing your sky now

DTUSAT

Track DTUSAT now!
10-day predictions
DTUSAT is classified as:


NORAD ID: 27842
Int'l Code: 2003-031C
Perigee: 819.1 km
Apogee: 831.5 km
Inclination: 98.7 °
Period: 101.3 minutes
Semi major axis: 7196 km
RCS: 0.0583 m2 (small)
Launch date: June 30, 2003
Source: Denmark (DEN)
Launch site: PLESETSK MISSILE AND SPACE COMPLEX (PKMTR)
Uplink (MHz):
Downlink (MHz):
Beacon (MHz): 437.475
Mode: 2400bps AFSK CW
Call sign: OZ2DTU
Status: Inactive

aabbcc
Your satellite tracking list
Your tracking list is empty





NASA's NSSDC Master Catalog

Two Line Element Set (TLE):
1 27842U 03031C   17292.99100403  .00000050  00000-0  42188-4 0  9999
2 27842  98.6840 298.9005 0008616 326.2057  33.8570 14.22127402742205
Source of the keplerian elements: AFSPC